Flag for Canada Weather past 2 weeks in Morden, Manitoba, Canada

Now
40 °F

Quite cool.


Feels Like: 37 °F
Forecast: 38 / 66 °F
Wind: 5 mph from West

Location: Morden CDA CS

Current Time: Sep 14, 2014 at 11:37:14 PM

Latest Report: Sep 14, 2014 at 11:00 PM


Visibility: N/A

Pressure: 30.16 "Hg

Humidity: 92%

Dew point: 38 °F

Location of MordenLocation

Historic Weather in Morden — Graph

°F

Morden temperature yesterday

Maximum temperature yesterday: 62 °F (at 3:00 PM)
Minimum temperature yesterday: 39 °F (at 1:00 AM)
Average temperature yesterday: 51 °F

Past Weeks' High & Low Weather Summary

 TemperatureHumidityPressure
High78 °F (Sep 6, 4:00 PM)99% (Sep 3, 1:00 AM)30.47 "Hg (Sep 3, 1:00 AM)
Low36 °F (Sep 12, 5:00 AM)27% (Sep 6, 4:00 PM)29.49 "Hg (Sep 8, 10:00 AM)
Average55 °F69%29.95 "Hg
* Reported Aug 30 10:00 PM — Sep 14 10:00 PM, Morden, Weather by CustomWeather, © 2014

Note: Actual official high and low records may vary slightly from our data, if they occured in-between our weather recording intervals... More about our weather records

Advertising

Morden weather history for previous 24 hours

 ConditionsComfort  
Time TempWeatherWind HumidityBarometerVisibility
10:00 PM
Sep 14
46 °FCool.2 mph82%30.15 "HgN/A
9:00 PM47 °FCool.2 mph80%30.15 "HgN/A
8:00 PM49 °FCool.2 mph65%30.14 "HgN/A
7:00 PM51 °FCool.6 mph63%30.12 "HgN/A
6:00 PM54 °FCool.7 mph53%30.11 "HgN/A
5:00 PM53 °FCool.6 mph52%30.10 "HgN/A
4:00 PM55 °FCool.7 mph49%30.10 "HgN/A
3:00 PM54 °FCool.7 mph51%30.10 "HgN/A
2:00 PM53 °FCool.7 mph55%30.11 "HgN/A
1:00 PM51 °FCool.10 mph66%30.11 "HgN/A
12:00 PM51 °FCool.10 mph70%30.10 "HgN/A
11:00 AM50 °FCool.13 mph73%30.10 "HgN/A
10:00 AM49 °FCool.10 mph80%30.08 "HgN/A
9:00 AM47 °FCool.9 mph82%30.07 "HgN/A
8:00 AM47 °FCool.10 mph84%30.05 "HgN/A
7:00 AM46 °FCool.8 mph91%30.03 "HgN/A
6:00 AM48 °FCool.8 mph87%29.99 "HgN/A
5:00 AM48 °FCool.9 mph88%29.97 "HgN/A
4:00 AM48 °FCool.10 mph88%29.96 "HgN/A
3:00 AM48 °FCool.9 mph88%29.92 "HgN/A
2:00 AM48 °FCool.7 mph88%29.92 "HgN/A
1:00 AM48 °FCool.7 mph88%29.91 "HgN/A
12:00 AM48 °FCool.6 mph87%29.91 "HgN/A
11:00 PM
Sep 13
48 °FCool.10 mph87%29.91 "HgN/A
Weather by CustomWeather, © 2014

See weather overviewHow to use our weather pages